Location: Newark
(46.9000°N, 28.3500°E)
Time: 06:03:22
(UTC+00:00)

deb Explorer IX - All Passes

Search period start: 21 August 2019 00:00
Search period end: 31 August 2019 00:00
Orbit: 540 x 1111 km, 38.8° (Epoch: 20 August)

Date Brightness Start Highest point End Pass type
(mag) Time Alt. Az. Time Alt. Az. Time Alt. Az.
21 Aug - 09:53:12 10° SSE 09:54:50 11° SE 09:56:32 10° SE daylight
21 Aug - 11:35:13 10° SW 11:40:42 30° SSE 11:46:42 10° E daylight
21 Aug - 13:20:55 10° WSW 13:27:19 44° S 13:34:12 10° ESE daylight
21 Aug - 15:07:40 10° W 15:14:10 38° SSW 15:20:50 10° SE daylight
21 Aug - 16:55:33 10° WSW 17:00:37 20° SSW 17:05:37 10° SSE daylight
22 Aug - 09:31:22 10° SSE 09:32:45 11° SE 09:34:10 10° SE daylight
22 Aug - 11:13:15 10° SW 11:18:35 29° SSE 11:24:29 10° E daylight
22 Aug - 12:58:54 10° WSW 13:05:10 43° S 13:12:00 10° ESE daylight
22 Aug - 14:45:36 10° WSW 14:52:00 38° SSW 14:58:39 10° SE daylight
22 Aug - 16:33:28 10° WSW 16:38:27 20° SSW 16:43:27 10° SSE daylight
23 Aug - 09:09:40 10° SSE 09:10:41 10° SE 09:11:42 10° SE daylight
23 Aug - 10:51:17 10° SW 10:56:29 29° SSE 11:02:16 10° E daylight
23 Aug - 12:36:54 10° WSW 12:43:02 43° S 12:49:47 10° ESE daylight
23 Aug - 14:23:33 10° WSW 14:29:50 37° SSW 14:36:28 10° SE daylight
23 Aug - 16:11:24 10° WSW 16:16:18 20° SSW 16:21:15 10° S daylight
24 Aug - 08:48:15 10° SE 08:48:37 10° SE 08:48:58 10° SE daylight
24 Aug - 10:29:21 10° SW 10:34:22 29° SSE 10:40:02 10° E daylight
24 Aug - 12:14:55 10° WSW 12:20:54 42° S 12:27:33 10° ESE daylight
24 Aug - 14:01:32 10° WSW 14:07:41 36° SSW 14:14:14 10° SE daylight
24 Aug - 15:49:21 10° WSW 15:54:08 19° SSW 15:59:01 10° S daylight
25 Aug - 10:07:25 10° SW 10:12:17 28° SSE 10:17:47 10° ESE daylight
25 Aug - 11:52:58 10° WSW 11:58:46 42° S 12:05:19 10° ESE daylight
25 Aug - 13:39:31 10° WSW 13:45:31 36° SSW 13:52:01 10° SE daylight
25 Aug - 15:27:19 10° WSW 15:31:59 19° SSW 15:36:45 10° S daylight
26 Aug - 09:45:30 10° SW 09:50:12 28° SSE 09:55:32 10° ESE daylight
26 Aug - 11:31:01 10° WSW 11:36:39 41° S 11:43:04 10° ESE daylight
26 Aug - 13:17:32 10° WSW 13:23:22 35° SSW 13:29:46 10° SE daylight
26 Aug - 15:05:19 10° WSW 15:09:49 18° SSW 15:14:28 10° S daylight
27 Aug - 09:23:36 10° SW 09:28:09 27° SSE 09:33:18 10° ESE daylight
27 Aug - 11:09:05 10° WSW 11:14:33 40° S 11:20:49 10° ESE daylight
27 Aug - 12:55:33 10° WSW 13:01:14 34° SSW 13:07:30 10° SE daylight
27 Aug - 14:43:20 10° WSW 14:47:39 18° SSW 14:52:10 10° S daylight
28 Aug - 09:01:43 10° SSW 09:06:05 26° SSE 09:11:03 10° ESE daylight
28 Aug - 10:47:09 10° WSW 10:52:27 40° S 10:58:34 10° ESE daylight
28 Aug - 12:33:36 10° WSW 12:39:06 33° SSW 12:45:14 10° SE daylight
28 Aug - 14:21:24 10° WSW 14:25:30 17° SSW 14:29:49 10° S daylight
29 Aug - 08:39:49 10° SSW 08:44:01 26° SSE 08:48:49 10° ESE daylight
29 Aug - 10:25:14 10° WSW 10:30:22 39° S 10:36:18 10° ESE daylight
29 Aug - 12:11:39 10° WSW 12:16:58 32° SSW 12:22:57 10° SE daylight
29 Aug - 13:59:29 10° WSW 14:03:22 16° SSW 14:07:27 10° S daylight
30 Aug - 08:17:56 10° SSW 08:22:00 25° SSE 08:26:35 10° ESE daylight
30 Aug - 10:03:20 10° WSW 10:08:18 38° S 10:14:02 10° ESE daylight
30 Aug - 11:49:44 10° WSW 11:54:52 31° SSW 12:00:39 10° SE daylight
30 Aug - 13:37:36 10° WSW 13:41:13 16° SSW 13:45:03 10° S daylight
